Skip Page Navigation
NASA JPL Caltech
NASA Logo - Jet Propulsion Laboratory + View the NASA Portal
+ Center for Near-Earth Object Studies
JPL Home Earth Solar System Stars & Galaxies Technology
JPL Solar System Dynamics
BODIES ORBITS EPHEMERIDES TOOLS PHYSICAL DATA DISCOVERY FAQ SITE MAP
IMPORTANT: The SSD Announcement email list is now available. Major changes are coming in the near future, including possible hostname and/or URL changes. To be notified of such changes, subscribe to this email list.

Please visit this page for more details.


JPL Small-Body Database Browser
Search: [ help ]  
376028 (2010 CX11)
Classification: Main-belt Asteroid          SPK-ID: 2376028
Ephemeris | Orbit Diagram | Orbital Elements | Mission Design | Physical Parameters | Discovery Circumstances | Close-Approach Data ]

[ show orbit diagram ]
Orbital Elements at Epoch 2459000.5 (2020-May-31.0) TDB
Reference: JPL 16 (heliocentric ecliptic J2000)
 Element Value Uncertainty (1-sigma)   Units 
e .08150562502706499 6.1859e-08  
a 3.111204831230574 5.1358e-08 au
q 2.857624136873901 2.0885e-07 au
i 8.43683342626775 6.2561e-06 deg
node 276.1328768653387 6.2947e-05 deg
peri 167.7498148900351 8.5419e-05 deg
M 6.540232154951283 5.5677e-05 deg
tp 2458964.084858872567
(2020-Apr-24.58485887)
0.00031007 TDB
period 2004.432028601798
5.49
4.9632e-05
1.359e-07
d
yr
n .1796019994008576 4.4471e-09 deg/d
Q 3.364785525587246 5.5544e-08 au
  Orbit Determination Parameters
   # obs. used (total)      185  
   data-arc span      6270 days (17.17 yr)  
   first obs. used      2002-10-04  
   last obs. used      2019-12-04  
   planetary ephem.      DE431  
   SB-pert. ephem.      SB431-N16  
   condition code      0  
   norm. resid. RMS      .47389  
   source      ORB  
   producer      Otto Matic  
   solution date      2019-Dec-14 21:06:52  

Additional Information
 Earth MOID = 1.87448 au 
 Jupiter MOID = 1.83211 au 
 T_jup = 3.197 
[ show covariance matrix ]

Ephemeris | Orbit Diagram | Orbital Elements | Mission Design | Physical Parameters | Discovery Circumstances | Close-Approach Data ]

Physical Parameter Table
Parameter Symbol Value Units Sigma Reference Notes
absolute magnitude H 15.6   n/a MPO413405  

376028 (2010 CX11)          Discovered 2010-Feb-06 by Lowe, A. at Mayhill
Reference: Last Updated: 2013-10-21

[ show close-approach data ]
Ephemeris | Orbit Diagram | Orbital Elements | Mission Design | Physical Parameters | Discovery Circumstances | Close-Approach Data ]
ABOUT SSD CREDITS/AWARDS PRIVACY/COPYRIGHT GLOSSARY LINKS
FirstGov 2020-Feb-18 13:07 UT
(server date/time)  
NASA Home Page
Site Manager:   Ryan S. Park
Webmaster  Alan B. Chamberlin